Theta_e
352 354 354 354 354 354 354 356 355 355 354 356 355 355 355 356 354 354 355 354 354 353 355 357 357 354 353 354 351 355 358 359 360 364 367 365 363 363 365 370 368 364 366 365 362 361 362 362 360 362 365 362 360 359 357 357 361 360 361 362 361 364 362 360 356 356 360 363 361 360 361 361 357 366 363 364 362 365 365 370 370 367 363 362 365
353 355 355 354 352 353 353 354 356 355 353 354 354 354 354 354 356 356 354 356 357 356 359 358 358 356 354 354 355 353 359 362 359 360 362 362 362 359 358 363 365 363 364 367 365 358 361 365 362 362 365 366 362 358 355 353 354 354 355 356 358 359 364 360 358 356 355 360 358 363 361 363 358 363 364 362 363 366 364 364 364 365 364 365 365
353 356 355 353 353 352 352 353 353 353 352 352 352 352 353 354 356 355 354 356 359 359 359 359 360 360 357 357 357 357 359 359 359 359 361 362 363 360 358 363 364 364 362 363 361 362 360 363 361 362 361 360 362 360 358 360 361 361 359 358 358 359 360 363 360 357 356 356 361 359 360 362 362 362 364 369 370 368 367 365 362 360 363 363 362
353 356 356 354 353 351 351 351 350 351 350 351 351 352 352 353 355 354 355 356 357 362 362 361 362 364 358 358 358 360 359 358 359 360 359 362 363 362 363 363 362 362 360 360 360 362 360 361 359 360 361 361 364 362 362 363 362 363 362 362 363 362 364 363 365 362 359 356 360 358 361 361 361 362 364 365 365 363 364 366 363 362 363 362 363
354 356 357 354 352 350 349 349 349 350 350 350 349 351 352 352 355 356 356 355 357 361 363 363 363 364 358 358 359 360 359 359 361 360 361 362 362 361 362 363 362 362 362 362 362 363 362 362 361 362 362 360 359 359 361 364 365 365 362 362 362 362 362 362 363 362 359 357 357 358 360 362 362 363 365 363 361 362 363 362 360 363 365 361 360
356 356 357 354 353 349 348 348 348 349 349 349 349 349 350 352 354 357 357 355 358 359 362 361 360 362 361 359 360 361 361 361 362 362 361 361 360 361 361 362 361 362 363 362 363 363 363 364 363 363 361 359 359 360 364 364 366 363 364 364 364 364 364 363 362 360 359 358 357 356 359 358 359 362 364 364 361 359 361 359 360 361 361 358 359
359 358 359 356 356 352 347 348 347 347 348 349 349 351 350 351 353 355 357 355 356 357 358 362 362 360 361 360 358 360 362 361 363 363 362 361 361 362 360 361 361 362 363 364 364 365 363 362 363 363 362 364 359 359 359 362 361 362 365 363 363 362 361 361 360 359 359 357 357 357 356 359 358 356 361 363 364 362 360 358 354 355 359 359 360
360 361 360 358 358 356 352 349 348 350 349 352 351 350 351 351 352 353 356 356 354 355 355 357 359 360 360 360 360 362 362 363 363 363 364 362 361 361 361 361 360 361 361 363 364 363 363 362 360 361 363 365 364 363 365 364 364 362 362 363 365 364 362 361 360 357 356 356 355 354 355 355 356 357 361 358 358 359 361 360 353 352 354 360 358
361 361 362 360 359 361 359 356 354 352 354 353 351 350 350 352 351 354 355 355 353 353 354 355 356 358 359 359 360 359 359 361 362 362 361 363 363 360 360 360 360 360 360 359 361 362 363 363 361 361 363 363 367 367 362 363 362 361 364 366 365 361 360 359 358 356 355 354 352 353 352 352 355 357 352 349 346 347 352 356 351 352 352 350 358
361 361 360 362 362 363 364 362 359 358 356 356 357 355 352 351 350 352 352 353 355 355 354 353 354 354 356 359 359 357 358 358 363 366 368 362 362 358 358 360 360 360 360 359 359 360 363 361 361 368 368 369 367 365 363 363 362 362 363 367 363 361 359 357 357 355 353 351 351 350 348 348 348 354 352 350 349 353 352 351 349 350 350 348 349
358 360 359 362 364 365 365 365 364 363 362 361 361 360 356 352 352 353 353 353 355 357 355 352 352 352 353 355 356 355 355 356 366 347 349 356 359 359 359 360 362 362 358 357 357 358 358 360 364 371 369 365 366 364 364 363 362 361 360 361 362 363 361 358 356 356 353 352 352 351 350 351 353 356 356 356 358 354 353 353 351 347 346 342 344
357 357 358 361 363 365 364 365 365 365 364 364 364 364 360 357 355 355 353 354 357 356 357 356 355 353 353 352 353 354 355 362 343 344 346 346 356 359 357 359 359 359 358 355 356 358 360 361 364 367 369 368 367 368 366 363 359 359 360 360 360 358 356 359 358 355 356 355 353 354 354 351 352 353 352 350 351 354 354 352 351 349 345 344 341
357 357 358 359 362 363 366 365 365 365 364 365 365 365 364 359 357 356 356 356 356 357 358 357 356 355 354 355 354 354 354 352 338 341 342 341 344 358 356 357 356 356 356 356 357 357 359 360 361 366 366 363 361 361 366 367 361 360 359 357 357 349 341 345 348 355 357 355 354 353 353 353 352 352 350 350 353 349 347 348 351 349 349 346 341
357 357 358 359 361 363 364 365 364 365 365 366 366 364 363 362 360 357 359 360 358 357 358 357 357 358 356 357 357 358 357 359 339 339 339 338 340 349 359 359 357 357 359 362 362 364 365 367 365 364 363 363 364 363 365 366 365 361 357 361 356 353 351 348 347 349 351 353 353 350 349 349 348 349 352 351 349 349 349 346 345 343 334 333 335
356 355 357 360 361 362 363 363 363 365 365 365 365 365 364 364 363 361 360 360 360 359 359 358 358 359 359 357 355 355 354 339 336 337 335 334 336 349 358 358 357 358 360 367 369 368 369 368 364 362 364 363 361 360 362 363 363 362 358 352 353 346 343 342 347 351 353 351 348 341 338 338 340 343 345 345 346 348 347 343 340 337 335 337 335
354 356 356 354 355 361 363 362 362 362 362 363 363 363 363 364 363 363 361 360 361 361 361 360 359 359 361 360 358 354 361 330 334 334 332 333 337 353 358 361 361 360 361 367 369 370 368 366 365 364 363 362 360 354 357 362 361 357 350 349 343 338 333 329 325 330 339 337 335 334 333 330 329 336 338 339 341 343 344 345 341 341 338 335 328
353 354 356 355 359 362 359 360 360 360 361 360 361 361 363 363 363 363 362 361 359 359 360 360 361 360 362 362 361 360 362 335 327 328 330 330 342 357 360 359 362 363 365 367 367 367 363 363 362 362 361 360 354 335 341 352 354 353 344 344 341 337 332 329 325 323 322 320 321 323 324 324 322 319 319 321 336 342 341 337 337 339 332 327 326
355 355 358 357 359 358 356 359 359 359 360 360 360 360 362 364 365 364 362 361 360 359 361 360 361 361 361 362 357 359 354 340 325 325 326 327 348 357 362 361 363 366 366 366 365 364 362 358 359 360 357 360 338 331 333 350 352 347 340 340 338 334 330 329 326 328 325 325 326 326 327 325 324 323 322 323 325 336 338 332 335 336 329 327 322
352 354 354 352 355 356 358 360 360 359 359 360 360 360 361 363 365 365 364 364 362 363 362 362 363 364 364 364 361 360 359 338 321 323 324 326 343 361 363 364 363 363 362 362 363 359 359 358 356 356 356 351 325 328 329 349 350 347 344 341 339 334 331 330 328 328 331 331 333 333 331 331 332 331 332 332 333 336 340 341 337 332 327 324 324
354 350 352 359 362 361 361 360 359 359 359 360 360 361 363 364 364 364 363 362 361 362 363 362 362 361 363 364 360 360 359 354 335 319 322 325 329 357 364 359 358 359 360 358 356 358 357 358 356 346 334 325 323 323 323 328 342 347 346 341 337 336 335 335 335 336 334 332 330 331 333 334 331 331 332 333 335 335 336 334 331 329 330 328 327
351 346 348 351 354 357 359 359 359 359 360 360 360 361 361 361 363 362 360 360 360 360 359 359 358 357 358 358 357 356 355 352 335 317 317 319 324 336 359 356 356 357 357 356 355 354 354 353 354 341 328 324 323 317 316 322 333 347 348 344 343 339 337 337 333 332 331 330 329 330 331 331 332 331 329 328 327 328 331 332 332 332 330 326 321
350 350 348 345 347 351 354 357 359 357 357 358 358 357 358 359 359 359 359 359 358 357 357 354 353 352 354 353 353 351 346 347 345 322 316 315 319 325 350 357 357 356 354 353 354 354 355 355 352 330 318 319 317 315 314 320 328 348 342 322 320 325 336 334 332 330 328 326 326 326 327 328 327 328 328 328 327 329 327 327 328 326 326 325 323
346 347 347 344 343 343 345 349 352 355 356 355 356 354 355 354 354 355 355 355 355 353 354 351 350 348 346 345 347 346 345 341 337 337 318 314 314 320 323 337 335 358 352 351 352 353 352 350 340 324 315 312 312 312 316 323 334 326 314 318 320 324 331 330 328 325 326 327 328 327 327 326 326 325 325 324 325 328 326 327 327 326 326 324 324
344 344 345 344 344 343 345 346 348 349 351 353 353 354 354 353 354 353 353 352 350 350 349 348 348 343 340 339 340 341 341 339 332 332 327 314 312 314 316 318 327 345 350 348 350 353 350 346 330 310 307 306 309 315 321 327 322 312 315 318 322 329 331 329 328 327 327 326 325 325 325 325 325 325 325 327 326 328 326 326 327 327 327 325 326
339 337 337 336 336 337 339 343 345 344 344 346 348 349 350 351 349 351 350 349 349 347 344 342 342 340 340 337 338 338 338 337 336 332 328 322 315 313 316 317 317 319 343 347 343 339 321 309 306 308 309 309 313 315 315 315 313 315 317 322 333 329 328 327 327 327 326 325 324 325 326 328 328 327 330 330 330 328 327 325 325 325 326 326 325
335 333 332 332 332 333 333 335 337 339 342 346 348 350 347 349 349 348 347 346 346 345 338 338 337 334 333 331 329 330 332 332 332 334 334 333 326 318 317 320 331 330 337 334 323 315 312 312 312 314 319 324 332 330 327 325 320 322 324 331 331 329 328 326 327 327 325 325 325 325 326 327 327 330 332 331 329 326 327 325 324 323 324 322 320
335 334 332 330 330 331 330 328 326 326 328 332 335 339 343 346 345 343 343 342 340 336 332 331 328 327 326 327 327 327 328 330 330 331 332 334 335 334 332 330 328 327 329 327 326 326 327 331 329 323 324 325 327 326 326 326 330 332 333 333 333 333 330 329 329 329 328 327 326 326 326 326 329 330 328 327 326 326 328 325 322 322 323 322 321
334 333 332 331 329 328 327 326 323 319 317 317 318 323 331 334 333 334 337 340 338 334 334 333 331 329 328 328 327 327 326 325 323 323 324 329 334 335 336 335 334 335 332 333 335 337 335 328 329 335 334 334 333 333 333 335 334 334 334 333 333 333 332 330 330 332 331 330 329 328 327 329 327 325 326 325 325 326 327 324 323 321 322 323 320
334 333 332 331 329 328 326 324 323 320 316 313 310 308 309 320 329 326 323 321 333 339 337 334 335 335 334 332 330 328 327 325 318 305 312 303 320 337 337 337 337 336 336 327 337 337 338 338 335 334 333 332 332 332 333 333 334 333 331 331 331 330 329 329 328 328 329 329 327 327 327 326 325 324 323 321 322 321 323 322 323 321 321 321 317
334 333 332 331 331 329 328 327 326 325 322 319 316 312 307 299 306 321 320 312 306 305 314 333 336 337 332 322 321 332 330 321 301 297 296 297 298 299 301 301 314 331 328 323 335 336 336 333 333 332 331 331 330 330 329 329 328 327 327 327 327 326 328 328 328 328 331 330 327 326 326 325 323 323 321 319 319 318 319 321 322 323 321 318 317
333 332 331 330 329 329 329 328 328 328 328 327 324 320 317 311 297 298 304 304 301 298 298 300 303 311 326 321 311 303 303 298 295 295 296 296 297 297 299 302 306 308 312 333 337 336 334 332 331 331 330 330 329 327 328 327 328 327 326 327 328 328 328 328 328 328 329 327 325 326 325 324 322 321 319 318 320 319 320 321 322 322 319 317 317
333 332 331 330 330 331 330 330 329 329 329 329 329 328 324 319 313 300 297 300 298 295 295 294 295 297 299 309 319 314 301 296 294 295 296 297 296 296 299 303 304 310 309 310 339 335 334 332 331 331 330 328 328 328 328 328 328 328 328 327 327 328 329 328 328 329 328 327 325 324 323 322 321 319 319 319 319 320 320 319 318 318 317 317 316
335 333 333 332 332 332 332 331 331 330 329 329 328 328 327 325 320 317 310 297 296 296 295 294 293 293 295 293 294 297 297 295 294 295 296 296 297 298 297 298 303 302 310 332 336 334 333 331 330 329 329 327 328 328 330 328 328 328 328 327 326 327 329 332 329 330 328 326 325 324 323 322 320 319 318 320 319 317 318 317 317 317 317 315 315
335 334 333 333 332 332 332 333 332 331 332 331 329 328 328 327 325 323 321 320 318 307 298 295 295 296 293 291 293 294 294 294 294 294 295 297 297 298 307 316 299 300 311 337 335 333 331 330 329 330 329 328 328 328 328 329 329 329 328 328 328 330 333 334 331 328 327 326 325 323 323 321 319 319 318 318 317 317 317 316 316 316 315 315 315
333 332 331 332 332 332 331 332 331 332 331 331 329 328 328 328 328 328 327 326 325 323 322 319 304 294 308 303 293 292 293 293 295 295 295 296 300 297 305 334 330 332 337 336 335 332 330 329 329 330 331 329 329 328 328 329 329 329 329 329 330 330 331 329 328 329 327 325 324 323 321 321 320 318 318 317 317 316 316 316 317 317 316 315 314
329 329 329 328 329 330 330 331 330 330 329 327 326 322 322 321 320 320 319 320 321 321 321 321 319 307 296 293 291 293 293 293 294 295 296 296 297 297 335 331 331 331 331 334 333 333 332 332 332 332 332 331 332 331 330 330 330 329 330 329 328 328 328 328 327 327 327 326 323 322 320 321 319 319 320 319 318 317 317 317 316 315 315 313 312
330 330 330 331 330 329 329 329 328 326 325 322 321 320 318 318 319 319 320 319 319 319 318 321 321 322 319 320 307 295 292 296 298 298 299 300 295 315 334 332 331 331 330 330 332 333 332 331 332 332 332 331 331 331 332 331 332 333 331 330 330 329 328 329 328 328 327 324 323 323 323 322 321 321 320 318 318 317 316 317 316 314 314 311 312
332 332 333 334 333 329 328 328 327 328 325 323 323 322 320 320 320 319 318 318 319 321 322 323 325 324 323 324 324 324 320 300 299 303 301 303 325 337 332 331 331 331 330 331 332 332 331 332 332 332 333 332 332 332 331 334 335 334 330 333 332 330 328 327 327 328 328 324 323 323 322 322 323 320 318 318 317 317 315 315 314 314 314 314 313
335 330 328 331 330 330 331 331 329 328 325 323 322 322 320 318 318 319 320 320 320 321 322 324 324 323 323 324 326 326 327 328 329 329 331 331 331 332 332 331 331 331 331 332 331 331 332 331 332 333 332 332 333 334 333 332 332 331 333 333 331 329 327 327 326 326 324 324 323 323 323 322 321 321 320 318 318 317 316 315 316 314 313 312 312
330 331 331 330 331 331 332 333 332 331 329 328 325 324 322 322 322 321 321 320 319 321 322 323 324 326 326 327 326 329 329 330 329 330 329 329 330 331 331 330 330 329 331 331 330 331 330 330 331 332 333 332 332 332 332 332 333 333 333 328 328 328 326 326 325 324 323 323 323 322 322 322 320 320 319 318 317 317 315 315 314 314 312 310 310
332 332 332 330 330 331 331 331 331 331 333 331 331 330 329 329 328 326 326 324 323 323 324 325 327 329 328 320 300 302 328 330 330 331 330 329 330 331 330 330 329 330 330 330 330 331 330 331 330 330 332 331 332 331 330 330 329 330 328 327 327 325 325 325 325 324 323 323 322 322 322 321 320 319 317 317 314 315 315 314 315 313 313 311 310
331 330 330 331 332 332 331 330 331 333 333 333 332 330 329 329 329 329 328 326 325 324 324 325 327 326 312 295 304 295 328 329 331 329 330 329 330 330 329 329 330 331 329 331 331 331 331 331 331 329 329 329 329 329 329 328 327 326 327 327 326 325 324 324 324 324 323 322 321 321 321 320 319 317 315 316 316 316 315 313 313 312 311 311 310
334 331 333 331 332 329 330 330 331 331 331 330 330 331 330 330 330 329 328 329 327 326 325 325 325 326 323 312 315 308 329 328 330 328 327 328 328 328 328 328 329 332 331 331 329 330 330 329 329 330 329 329 329 329 328 327 327 326 325 326 325 324 323 322 321 322 322 321 320 320 320 318 317 317 317 316 316 314 313 311 311 310 310 310 309
332 331 331 330 330 330 331 329 328 330 330 330 330 329 329 329 329 329 328 328 326 326 326 326 326 325 325 319 319 325 328 327 329 328 328 328 328 328 328 329 329 329 330 330 330 331 329 328 328 328 330 329 330 330 327 328 327 326 324 324 323 321 322 322 322 321 320 319 319 318 319 318 317 317 315 314 315 314 312 311 310 309 308 308 307
329 328 327 327 329 328 329 331 328 327 327 327 328 327 328 326 327 327 325 326 324 325 325 326 324 324 323 324 325 327 327 326 326 327 327 327 328 328 328 329 330 330 329 329 330 331 329 328 328 328 327 328 328 328 329 328 328 325 324 323 322 321 321 322 322 322 321 320 319 319 317 316 317 316 315 315 314 312 311 310 310 310 307 306 305
327 328 326 325 324 325 325 327 327 326 325 324 324 324 324 324 326 325 324 325 323 324 325 324 324 324 324 325 324 322 324 328 328 328 326 328 327 328 328 329 329 329 329 329 329 330 329 328 328 327 327 327 326 327 326 326 326 326 326 326 324 323 323 323 323 322 320 320 318 318 317 316 316 315 312 313 313 311 311 309 310 308 306 306 305
326 326 326 326 324 324 325 326 324 323 324 322 323 321 320 322 323 322 325 324 323 324 325 324 324 322 323 324 323 324 324 325 327 327 328 329 329 329 328 329 329 329 328 328 329 328 328 328 327 327 327 327 325 324 323 323 324 323 323 323 322 321 322 320 320 320 319 318 317 317 316 317 315 312 310 310 310 310 309 308 306 306 307 306 305
325 324 324 325 324 323 324 323 322 321 322 322 321 321 319 318 318 321 321 320 321 322 324 325 324 323 323 323 324 323 325 326 328 328 327 327 328 329 330 330 328 328 328 327 327 327 326 327 327 325 325 324 322 322 321 320 320 320 320 319 318 318 313 307 319 319 320 318 317 317 316 315 314 312 311 311 310 310 309 307 307 306 306 305 305
323 322 322 324 323 323 323 322 322 321 321 320 318 317 317 317 320 320 320 321 323 321 324 323 323 323 324 326 326 328 326 326 327 327 327 327 328 329 329 328 328 328 326 326 325 325 325 324 323 322 323 322 320 319 319 318 317 316 314 314 309 297 297 299 309 316 309 317 316 315 315 314 312 311 310 309 309 309 308 307 308 305 305 306 305
322 321 321 322 321 320 321 321 321 321 319 318 318 318 317 319 319 318 320 320 320 321 322 323 322 323 324 323 325 325 326 326 326 326 326 327 326 326 326 326 326 325 324 323 323 323 322 323 322 321 320 320 318 319 317 316 315 313 312 309 297 296 296 296 295 295 315 316 314 314 313 312 311 310 308 308 308 307 306 306 305 305 305 304 304
320 319 319 319 320 319 318 318 318 318 318 318 317 318 317 318 318 319 319 319 320 322 321 321 323 322 325 324 324 325 325 325 326 325 327 325 325 324 324 324 323 324 323 322 321 320 320 320 319 318 317 317 316 315 315 313 312 309 300 295 293 291 292 297 309 294 292 299 314 312 312 310 310 309 308 307 307 305 303 303 304 304 305 303 304
Wind_Speed
14 13 12 13 13 14 14 13 13 12 11 10 10 10 9 9 9 8 8 8 8 9 9 7 7 7 8 8 8 7 6 6 6 6 6 6 5 5 4 4 5 5 5 5 5 5 5 5 5 5 4 5 4 5 4 4 4 4 3 4 4 4 4 5 7 7 6 4 5 6 5 5 4 1 4 4 5 3 4 7 6 6 6 2 7
13 13 12 12 14 14 14 13 13 12 13 12 12 10 10 9 9 8 9 8 8 8 8 8 8 7 8 7 6 7 7 7 7 7 7 7 7 6 7 7 6 6 5 5 5 5 4 5 6 6 5 5 5 5 5 5 5 5 4 4 4 5 3 5 6 6 7 6 5 5 6 4 5 3 3 4 5 5 7 6 6 5 4 4 2
13 12 12 12 14 13 13 13 13 14 14 12 12 12 11 10 10 9 9 8 8 8 8 8 7 8 8 7 7 7 7 8 8 7 7 7 7 7 6 6 7 7 7 7 7 6 6 6 7 6 4 5 4 5 4 4 4 5 5 5 5 5 4 4 5 7 7 7 6 6 5 4 5 5 4 4 5 6 5 7 5 3 3 3 2
13 13 13 14 14 14 13 13 15 14 14 12 13 12 11 11 10 10 9 8 8 8 7 8 8 8 8 8 8 8 8 8 8 8 8 8 8 7 7 6 6 6 6 6 6 6 6 6 6 6 4 4 4 5 4 4 4 4 5 4 4 5 4 4 5 6 6 7 5 6 6 6 5 5 5 4 7 5 5 5 5 4 4 4 5
12 13 14 14 14 14 14 14 14 15 14 13 14 13 12 11 10 11 10 9 9 8 8 8 8 9 9 10 9 9 9 9 9 8 8 8 8 8 8 7 7 7 7 6 6 6 6 6 6 5 5 5 5 5 3 4 4 4 5 4 4 4 3 4 4 5 5 6 6 6 7 6 5 5 4 5 6 5 1 5 7 4 3 5 7
12 12 13 13 13 15 14 14 14 15 15 14 14 13 13 12 11 10 11 10 10 9 9 9 9 9 9 9 9 9 9 9 8 8 9 8 8 8 7 7 7 7 7 7 7 7 6 7 6 6 6 5 5 4 4 5 4 5 5 4 4 3 3 4 4 5 5 6 6 7 6 6 5 4 6 5 5 5 2 2 5 7 4 6 8
13 12 12 12 12 13 14 14 13 14 14 13 12 12 13 13 12 11 11 11 11 10 10 10 9 9 10 10 10 9 9 9 8 8 9 8 8 7 7 8 7 7 7 7 7 7 7 7 7 7 6 6 7 6 5 5 5 6 5 5 5 4 5 5 4 5 6 6 6 6 6 5 5 6 5 5 5 5 4 2 2 2 6 2 2
12 13 13 12 12 13 13 13 13 12 11 11 12 12 12 12 12 12 11 12 12 12 11 10 10 10 9 9 9 9 9 8 8 8 8 8 8 8 8 8 8 8 7 7 7 7 8 8 8 7 7 7 7 6 5 5 5 6 4 4 4 4 5 5 4 5 5 6 5 6 5 5 4 7 6 6 6 6 4 2 3 4 2 4 2
12 12 12 13 13 12 12 12 12 12 11 10 11 12 12 11 11 11 11 11 10 11 11 11 10 10 9 9 9 8 8 8 8 8 8 8 7 8 7 8 8 7 7 8 8 8 7 7 7 7 5 5 4 5 6 5 5 5 4 2 1 3 4 5 4 4 5 5 5 4 5 4 5 5 5 5 7 7 8 3 6 5 3 1 2
13 13 12 12 13 12 11 11 11 12 12 12 12 12 12 12 12 12 11 11 10 10 10 10 10 10 9 9 9 8 8 7 7 6 3 5 7 7 7 6 7 7 7 7 7 7 7 8 5 3 4 4 4 5 5 4 5 6 5 2 2 3 4 5 6 5 3 5 5 5 5 6 4 2 2 3 6 6 7 7 6 2 1 2 2
12 13 13 12 12 12 11 10 10 11 11 11 12 12 12 12 11 11 11 11 11 10 9 10 10 10 10 9 9 9 8 7 9 11 8 6 7 7 7 6 7 7 8 8 8 7 7 7 6 5 4 5 7 8 5 5 5 6 6 7 5 5 5 6 7 5 5 5 6 6 6 6 7 6 5 5 6 5 3 4 3 5 2 2 3
13 13 13 12 12 12 12 12 11 11 11 11 11 11 11 11 11 11 11 11 10 10 10 10 10 10 8 9 9 8 8 6 13 11 10 10 8 7 7 7 7 7 7 8 7 6 6 6 5 4 4 2 3 3 7 8 8 8 7 7 8 5 1 3 5 6 6 7 7 7 7 6 6 7 7 7 7 5 5 5 5 3 7 3 1
13 14 13 13 13 12 12 12 13 12 12 11 10 9 10 10 11 10 11 10 10 10 10 10 10 10 9 9 9 9 9 12 12 12 11 9 8 7 6 7 8 8 8 8 8 8 7 6 6 4 2 6 4 6 5 6 7 7 5 4 7 9 5 3 1 4 5 6 7 7 6 6 7 6 5 6 6 7 9 7 1 1 5 4 3
13 13 13 14 13 13 13 13 13 12 12 11 10 10 10 11 11 10 9 9 9 9 11 11 10 9 9 9 8 8 10 10 12 12 10 10 9 8 6 7 8 8 8 7 6 6 5 4 3 3 3 4 4 5 6 6 6 7 6 4 4 5 6 6 6 7 4 4 5 5 4 5 6 7 7 6 7 7 5 5 5 5 9 8 5
15 14 14 13 13 13 13 13 12 11 11 10 10 10 10 10 10 10 10 10 10 10 10 10 9 9 10 9 10 9 8 12 12 11 10 10 9 8 7 7 7 8 7 6 5 5 4 3 5 5 5 5 6 6 7 6 6 5 5 3 4 4 6 6 6 3 1 3 3 3 5 6 5 5 3 3 3 4 4 6 6 7 7 5 5
15 14 13 14 15 13 13 13 12 10 10 10 10 10 10 11 11 10 9 9 9 9 9 9 10 10 10 10 10 11 5 12 11 10 10 9 10 7 7 7 8 8 7 6 5 4 4 5 5 5 5 5 4 3 4 5 5 6 5 5 5 7 8 7 9 12 10 8 7 7 7 7 7 6 6 4 1 4 3 4 5 5 5 4 5
15 14 12 11 12 12 13 13 11 11 10 10 10 10 10 9 10 9 9 9 10 10 10 10 9 10 10 9 9 9 6 6 9 9 9 10 9 7 7 7 7 7 6 6 5 5 6 6 7 6 5 7 6 7 2 5 6 2 7 4 6 6 6 6 10 12 13 12 10 7 7 8 10 10 10 9 7 5 2 2 3 3 4 6 5
13 13 11 11 14 10 11 11 10 10 9 10 10 9 8 8 8 8 9 9 10 10 9 8 8 8 9 9 9 8 7 7 8 8 8 11 9 7 6 6 6 6 5 5 4 4 4 6 7 6 5 5 8 7 5 5 5 4 8 6 7 7 7 6 6 7 7 8 7 6 6 8 9 11 12 13 13 7 2 3 4 5 7 5 5
11 9 10 14 13 12 12 10 9 9 9 9 9 9 9 8 7 7 7 7 7 7 8 7 7 7 7 7 7 7 3 6 5 6 7 9 8 6 5 4 5 5 5 5 5 6 5 6 9 8 5 5 9 5 4 3 1 3 9 10 8 8 7 7 8 8 7 6 6 5 6 6 7 7 8 10 11 9 6 5 5 6 7 6 5
8 9 9 6 7 7 7 7 8 8 9 8 8 8 7 7 7 6 6 6 7 7 7 6 6 7 6 6 5 5 5 5 5 4 3 3 6 5 4 4 4 5 4 5 6 6 5 4 4 2 3 6 4 1 3 3 1 6 7 6 8 8 8 8 6 5 5 5 6 5 6 6 6 6 7 8 8 8 7 5 5 5 5 4 3
3 2 5 4 5 7 6 7 8 8 7 7 7 7 6 7 6 6 6 5 5 4 6 6 6 5 5 6 6 4 1 5 5 4 2 2 3 5 4 5 5 4 4 6 6 5 5 5 4 8 4 4 2 5 4 1 2 1 8 7 7 8 7 7 7 8 7 6 6 5 5 5 5 5 6 6 7 7 7 8 8 7 5 5 6
4 3 3 5 6 2 5 6 7 7 8 7 7 7 7 6 6 6 6 6 6 7 8 6 7 8 6 5 4 5 2 1 5 4 4 5 4 1 3 3 3 6 5 6 5 4 4 2 0 7 6 5 5 5 4 4 2 2 8 14 15 11 8 7 6 6 5 5 4 4 4 5 5 6 6 6 7 7 8 9 9 10 9 8 7
2 4 5 4 1 2 3 4 4 5 5 7 7 7 6 6 7 7 7 7 9 9 9 9 8 6 6 5 4 4 5 4 4 4 3 3 5 6 3 2 2 2 5 4 4 4 4 1 6 9 8 7 5 4 6 9 10 11 17 16 14 12 10 6 7 5 4 4 4 4 4 4 5 5 6 6 6 7 7 8 8 8 8 8 8
2 5 5 5 5 5 4 4 5 4 2 3 5 6 6 6 5 5 6 7 8 7 7 7 7 7 7 6 5 4 5 6 6 5 3 2 3 5 7 6 5 6 3 4 5 3 4 4 4 7 7 7 5 3 7 10 12 16 16 16 13 10 7 7 6 6 5 5 5 5 5 4 5 6 6 6 6 6 7 7 7 8 7 7 8
6 6 5 5 4 5 6 6 5 3 2 3 3 3 5 6 6 6 7 7 6 8 6 6 7 7 7 6 6 5 5 5 5 5 6 3 4 6 6 6 8 2 3 3 4 4 8 12 11 9 9 12 13 8 11 15 16 16 15 14 13 8 7 6 6 6 6 6 6 5 5 5 6 6 6 6 6 6 6 6 7 7 7 8 8
8 7 7 6 6 5 8 8 7 6 5 3 2 1 3 4 5 5 5 6 6 5 6 6 5 5 6 6 6 4 4 2 3 3 4 4 3 3 4 4 5 0 4 7 8 11 12 13 13 12 11 10 9 7 5 9 15 14 12 11 8 8 7 7 6 6 6 6 6 6 6 6 6 6 5 5 4 5 4 4 4 4 4 5 6
8 7 8 8 7 7 8 6 7 8 7 7 7 7 6 3 4 4 4 3 3 5 5 5 5 5 4 3 4 4 4 3 2 3 3 3 4 5 7 8 12 13 9 7 9 8 10 8 10 13 14 17 16 13 12 12 11 9 7 8 8 8 7 6 6 6 6 6 6 6 6 6 6 5 4 4 4 3 3 2 3 5 4 4 4
8 8 8 8 8 8 9 12 10 8 8 8 7 7 7 6 6 6 4 3 6 6 6 6 5 5 5 5 5 5 5 5 4 3 3 3 4 4 5 6 7 6 7 6 6 9 9 12 13 11 11 11 10 8 8 8 8 8 7 7 7 7 7 8 7 6 6 6 6 6 6 5 5 4 4 4 4 4 4 4 4 3 3 3 3
9 9 8 8 8 8 8 8 8 7 8 10 9 7 6 6 6 7 8 6 3 3 6 6 5 5 6 6 6 5 5 5 2 1 1 2 3 4 5 6 6 6 8 9 9 9 8 8 9 10 10 10 9 9 8 8 7 8 9 8 7 7 7 7 7 7 6 6 6 5 5 4 5 4 4 5 5 4 4 4 4 4 3 3 4
9 8 8 8 8 8 8 9 9 8 8 7 9 12 17 15 11 7 6 10 13 14 10 6 4 5 5 7 6 2 5 5 3 3 5 8 11 10 6 5 5 8 9 10 8 9 8 9 8 9 9 9 9 8 9 9 9 9 8 8 8 8 7 7 7 7 6 6 6 5 5 4 4 4 4 5 5 5 4 3 3 2 2 2 3
8 7 7 7 7 7 7 7 7 8 8 8 9 10 9 10 14 13 11 11 13 16 16 16 16 14 7 7 7 12 10 8 5 5 7 10 10 8 8 8 9 8 6 2 5 6 6 7 7 7 8 8 9 9 9 9 8 8 8 8 7 7 7 7 7 7 6 6 5 5 4 4 4 4 5 4 4 4 4 3 3 2 2 3 3
8 7 7 6 6 6 7 7 8 8 8 8 9 9 9 9 9 13 15 16 17 17 15 15 14 13 12 7 6 5 6 6 6 7 9 10 8 8 8 8 6 4 2 3 4 5 5 6 7 7 7 8 8 9 9 8 8 8 7 7 7 7 7 7 7 6 6 5 5 5 4 4 4 4 5 4 3 3 3 3 3 3 3 4 4
9 8 8 8 7 7 7 7 8 8 7 7 7 7 7 8 10 9 8 12 16 15 15 14 13 12 13 13 12 10 7 6 7 7 8 8 9 8 8 6 3 2 4 2 6 5 6 7 7 7 8 8 9 8 8 8 7 7 7 7 7 7 6 7 6 6 6 5 5 5 5 5 5 5 4 4 3 4 3 3 3 3 2 2 3
10 8 8 8 8 7 7 7 7 6 7 6 6 7 7 7 8 9 9 7 8 10 12 13 11 10 11 10 8 8 7 8 8 8 6 6 5 4 5 3 3 1 1 4 7 8 7 8 8 8 8 8 8 8 8 7 7 7 6 6 6 6 7 6 5 5 6 5 5 5 4 5 4 4 4 4 3 3 3 2 2 2 2 3 3
10 11 12 9 9 8 8 8 8 7 7 6 6 7 7 6 6 6 6 7 7 7 7 6 8 10 6 5 8 8 8 8 8 6 4 2 4 3 4 6 4 4 4 6 7 7 7 7 7 7 7 7 7 7 7 7 6 6 6 6 6 6 6 6 5 5 5 4 5 4 4 4 4 4 4 3 3 2 2 2 2 3 2 2 3
8 8 8 8 8 7 7 6 6 6 6 6 6 7 6 6 7 7 7 7 6 6 6 6 6 4 8 7 5 5 6 5 4 2 1 1 3 2 4 7 7 7 7 7 8 7 7 8 7 7 6 6 6 6 6 6 6 6 6 6 7 7 6 6 6 5 5 5 6 6 5 5 5 4 4 3 3 2 2 2 4 4 4 6 6
7 7 7 7 7 7 7 7 7 6 6 6 6 6 6 7 7 6 6 6 7 6 6 6 6 5 4 5 4 5 3 2 1 1 3 6 6 5 3 6 6 7 7 7 7 6 6 6 7 6 6 6 6 6 6 6 5 5 6 6 6 7 6 6 7 6 5 5 6 5 5 5 4 4 2 1 1 0 1 2 4 6 4 4 4
8 7 8 8 8 8 8 8 8 8 7 7 6 6 6 6 6 7 7 7 6 6 6 5 5 6 6 5 2 3 4 2 2 2 5 7 5 3 7 5 6 6 6 5 5 5 5 5 5 6 6 6 5 5 5 6 5 5 6 5 6 6 7 7 8 6 6 6 5 5 5 5 3 3 1 1 1 1 1 1 6 6 0 10 5
7 7 6 4 7 7 7 7 7 7 7 7 7 7 7 7 7 6 6 6 6 6 6 5 6 6 6 6 6 6 6 6 6 6 5 5 6 5 6 6 5 6 6 5 5 5 5 5 4 3 4 4 4 4 4 4 5 5 6 6 7 7 8 7 7 6 5 4 5 4 4 3 3 1 1 1 2 1 2 2 3 4 5 6 5
8 7 4 2 7 7 7 7 7 7 7 7 7 8 7 7 7 7 7 7 6 6 6 6 6 7 7 7 8 7 6 5 5 5 5 5 5 5 4 5 5 5 5 5 5 4 4 4 4 4 4 4 4 4 4 4 4 5 5 5 6 7 6 6 6 5 4 4 4 4 3 2 1 2 1 2 3 2 2 5 4 3 4 6 6
6 6 5 5 6 7 7 7 7 7 7 7 7 7 7 7 7 7 7 7 7 7 6 6 6 5 5 6 7 6 1 5 4 4 4 4 4 4 4 4 4 4 4 4 4 4 3 4 3 3 3 4 4 4 4 4 4 4 4 5 5 5 5 5 5 4 5 4 4 4 2 2 2 3 3 4 3 3 1 2 6 5 5 4 3
6 6 6 6 4 5 6 6 6 6 6 6 6 6 6 6 6 6 6 6 6 6 6 6 6 6 4 6 7 9 4 5 4 5 4 4 5 4 4 4 4 4 5 5 4 4 4 4 4 4 4 3 3 4 4 4 4 4 4 4 4 4 5 5 5 5 5 5 3 3 4 1 2 4 6 1 4 3 3 3 4 4 4 5 4
5 5 5 4 4 4 5 5 5 5 5 5 5 5 5 5 5 5 4 5 6 6 6 6 6 5 3 3 6 10 2 5 4 4 4 5 5 5 5 5 5 4 4 4 4 4 4 4 4 4 4 3 3 3 3 2 2 3 3 3 4 4 4 4 4 5 4 3 4 3 3 4 5 4 2 2 1 2 4 2 4 5 4 4 3
4 4 4 4 4 4 4 4 4 4 4 5 5 4 4 4 4 4 4 3 4 5 5 6 6 6 5 3 4 5 3 5 5 4 4 4 5 4 4 4 4 5 4 4 4 3 4 4 4 5 5 4 4 2 2 2 2 4 3 4 3 3 4 5 5 4 4 4 4 4 4 1 1 0 1 1 2 3 1 2 3 5 5 6 4
3 3 4 5 4 4 4 3 4 5 5 5 5 4 3 3 4 4 3 4 2 2 4 6 6 5 5 5 5 3 3 3 3 3 4 4 4 3 3 4 4 4 4 4 4 4 4 4 5 5 5 5 4 4 4 3 2 1 3 4 4 4 3 3 3 3 3 4 4 2 2 3 2 1 2 1 1 3 6 3 2 4 4 4 3
2 3 2 3 4 4 4 4 4 4 4 4 4 4 4 2 2 2 2 2 3 3 3 3 3 5 5 5 4 3 3 3 3 3 3 3 3 3 3 4 4 4 4 5 5 4 4 4 5 5 5 5 4 4 5 5 5 5 5 4 3 3 3 3 3 2 2 1 1 1 0 1 2 2 5 5 1 5 5 2 1 2 1 3 2
1 1 2 3 3 3 4 4 3 3 3 3 2 3 2 2 2 3 2 2 2 2 2 3 4 4 3 3 4 4 3 4 4 3 1 2 2 3 3 4 4 4 4 4 5 5 5 5 5 5 5 5 6 5 5 5 6 6 6 6 6 6 6 5 5 5 4 4 2 1 1 1 1 2 3 2 3 3 1 3 2 0 2 2 3
3 2 2 3 4 4 4 3 4 2 2 3 2 2 2 1 2 2 4 5 4 3 2 3 2 2 3 3 3 3 3 3 2 2 3 4 4 3 4 4 4 4 5 5 5 5 5 6 6 6 7 7 6 6 6 6 6 7 7 7 7 7 8 6 5 5 4 3 3 2 2 1 1 2 3 2 3 3 1 2 1 2 3 2 3
3 3 4 3 3 4 4 3 3 3 3 2 3 2 2 1 1 2 2 2 1 2 1 2 2 2 2 2 2 2 2 3 3 4 3 3 4 4 5 5 5 5 5 6 6 6 6 6 6 6 7 7 7 7 7 7 7 8 8 7 8 13 14 14 7 6 4 2 2 2 3 4 5 5 4 3 3 2 2 1 0 1 2 4 5
3 4 3 4 3 3 3 2 2 2 2 1 0 1 2 2 2 2 1 1 2 2 2 1 1 2 2 3 3 3 3 4 4 4 4 4 5 5 5 5 5 5 6 6 6 6 6 7 7 7 7 7 7 7 7 7 7 8 8 7 10 12 11 11 11 9 5 2 3 3 4 5 5 5 4 4 3 3 1 2 4 3 4 4 5
4 4 3 3 3 3 2 2 2 1 1 2 2 2 2 2 2 2 2 2 2 2 1 2 2 1 2 2 3 3 3 3 3 4 4 5 5 5 5 5 5 6 6 6 6 6 6 6 7 7 7 7 7 7 7 8 8 8 9 10 10 10 9 7 6 8 13 8 4 4 5 5 5 4 3 3 3 4 3 2 2 4 4 5 5
Wind_Direction
190 194 195 198 197 196 196 198 203 205 209 206 214 209 208 212 207 211 195 209 198 198 208 211 212 208 216 204 208 202 207 216 210 208 208 210 224 237 239 207 221 235 233 248 257 251 243 253 267 268 275 275 269 272 270 256 237 250 250 266 279 279 278 278 286 292 295 303 300 298 316 310 313 90 275 264 267 179 227 243 254 267 275 239 151
194 191 198 197 201 198 200 197 201 204 208 207 211 212 212 207 212 209 205 200 206 207 208 207 206 208 214 212 214 211 200 211 229 214 211 210 222 217 215 220 229 241 253 249 242 253 239 237 250 254 234 247 277 282 283 297 314 311 299 282 280 290 278 286 291 298 297 289 290 305 295 287 273 245 271 285 297 301 286 294 286 261 259 275 151
192 190 195 199 202 203 203 200 201 205 208 210 209 211 207 211 206 210 214 204 199 213 204 210 207 207 216 210 206 219 213 216 218 226 219 214 221 236 232 212 212 225 227 228 236 232 235 235 240 239 247 251 251 262 285 310 302 297 296 303 304 290 288 276 278 282 291 295 297 290 294 301 293 289 283 275 275 270 280 276 277 287 259 267 99
193 188 192 198 200 203 204 207 203 204 207 210 209 211 211 205 203 210 213 216 202 202 215 208 202 203 211 210 210 218 215 219 222 216 217 221 223 225 237 244 239 233 236 242 240 235 240 242 243 249 256 252 263 287 287 293 295 284 289 291 284 297 295 273 258 277 293 297 301 299 309 305 292 277 252 262 280 293 295 309 288 293 318 267 95
197 191 193 198 197 202 205 207 206 205 208 209 209 207 209 207 199 206 210 212 210 197 203 213 211 205 213 212 212 214 218 220 222 228 224 219 220 226 226 224 226 231 238 236 238 245 244 247 250 246 242 250 253 268 286 262 253 259 280 294 286 287 296 290 281 277 281 286 293 299 290 285 288 291 301 288 275 259 308 330 314 296 274 280 91
199 195 200 200 199 201 205 207 208 207 209 211 211 209 208 208 203 197 206 210 210 205 202 208 212 213 218 222 219 215 218 223 222 228 230 227 224 226 227 229 231 233 231 227 229 232 232 229 237 240 247 254 267 266 260 254 253 256 260 272 284 282 268 270 266 269 271 270 279 284 273 277 285 292 289 282 290 285 324 265 299 316 279 259 122
189 194 202 207 199 204 203 206 209 210 208 213 214 212 211 209 208 203 202 207 209 211 207 208 213 215 217 223 225 218 218 223 222 221 230 234 234 231 234 231 232 234 230 230 229 228 230 235 240 245 249 249 258 264 265 266 267 274 259 264 264 268 262 254 239 256 261 270 273 277 285 278 271 278 272 269 267 271 269 218 292 277 289 250 348
199 190 191 203 202 202 205 204 210 211 211 211 219 218 216 215 210 210 206 206 211 210 212 210 208 216 218 221 224 222 215 220 217 220 222 228 228 226 232 242 239 233 230 223 226 228 231 240 248 248 244 239 245 250 249 252 262 267 269 268 271 279 284 291 292 281 280 285 285 292 294 298 305 278 275 262 248 239 244 269 276 266 215 313 58
204 203 195 193 198 202 202 201 204 206 208 212 215 221 223 222 218 216 213 214 212 215 214 214 216 216 216 222 223 223 218 213 217 210 216 223 237 237 233 231 233 237 238 232 225 230 243 247 249 257 261 253 257 286 296 308 286 278 276 269 294 297 290 286 275 276 279 282 285 272 272 286 265 271 317 334 329 313 306 283 260 286 16 32 165
205 205 208 200 191 195 202 204 200 201 198 203 206 211 217 218 218 218 219 218 221 220 220 221 220 218 218 216 221 224 225 224 208 202 237 233 220 234 237 237 238 243 244 247 245 241 241 252 254 133 184 192 231 249 248 250 266 301 310 257 215 250 266 268 265 265 273 278 280 289 278 261 280 236 208 247 266 283 281 294 301 329 257 101 322
216 210 208 210 202 191 193 200 201 202 200 201 203 207 213 216 216 218 217 218 219 217 224 225 225 223 221 219 224 227 227 230 151 154 175 236 258 247 243 242 240 241 242 239 246 245 254 252 251 185 197 225 224 219 225 226 224 241 258 260 253 252 261 271 282 284 279 271 271 273 275 281 281 283 284 250 217 228 247 246 259 304 311 279 284
218 217 213 208 208 199 193 191 196 197 200 203 206 210 214 216 219 215 217 216 213 215 211 217 222 225 227 229 228 232 237 135 141 159 184 200 222 252 256 253 247 243 243 248 247 245 242 247 246 243 238 261 315 204 198 191 214 217 234 223 217 232 11 290 282 282 281 282 285 283 287 281 284 284 290 310 310 274 269 298 280 280 270 116 308
223 221 215 210 205 202 198 193 193 196 199 202 203 205 212 216 217 219 221 221 218 217 219 215 219 223 226 229 235 230 235 144 159 168 189 194 202 236 254 257 260 257 260 260 259 258 256 250 252 234 178 137 239 259 251 195 207 237 216 169 116 112 101 91 261 271 277 280 286 288 288 302 299 306 341 330 312 306 299 277 12 268 312 39 92
220 226 218 209 206 203 203 199 194 195 195 198 198 203 207 210 213 212 215 216 220 217 218 216 217 220 223 229 227 231 240 161 170 176 181 187 188 208 240 249 251 256 259 262 266 266 255 247 241 221 227 238 252 253 241 227 211 202 209 196 153 109 131 163 210 223 250 283 303 317 0 331 312 321 323 315 299 297 313 340 2 38 68 78 63
214 214 215 211 203 202 204 203 201 197 198 198 197 200 202 209 213 210 206 208 209 213 215 219 217 215 214 216 222 221 223 143 158 163 175 185 187 206 240 244 252 249 248 242 244 238 225 214 216 233 226 227 244 247 246 238 223 213 168 152 142 78 41 11 351 333 66 357 49 47 32 17 357 341 347 327 307 314 1 45 71 93 99 89 59
215 214 209 208 209 205 198 200 200 199 198 199 202 203 203 206 209 212 216 213 210 209 212 217 215 212 213 213 219 225 161 148 145 158 159 182 177 212 229 234 242 246 235 219 213 208 218 226 240 236 233 241 219 156 252 265 239 206 94 134 95 78 63 48 43 47 49 58 66 65 58 52 36 34 18 354 129 130 125 110 101 115 129 120 90
216 212 200 203 213 197 201 202 200 197 197 198 203 205 206 207 208 206 212 217 217 212 212 210 210 215 214 216 221 225 192 144 139 152 165 173 187 218 227 229 234 234 233 216 200 205 227 233 251 253 241 258 161 157 204 259 271 121 109 145 101 96 96 78 67 72 79 80 82 82 84 69 60 50 44 25 6 338 96 118 143 173 103 82 78
222 218 203 204 205 193 206 202 195 196 194 198 202 206 209 210 208 204 211 213 220 222 220 220 215 216 218 216 227 224 219 134 151 159 172 183 210 223 217 226 224 225 223 207 210 218 235 237 255 268 268 262 138 168 173 222 246 119 134 153 126 125 133 137 119 99 97 100 96 88 77 75 68 60 43 32 23 8 111 82 56 89 90 92 91
229 230 214 207 207 195 191 187 190 194 200 201 203 208 210 210 205 199 204 216 222 220 217 216 210 209 213 217 218 238 193 117 140 163 189 200 219 232 226 218 224 217 220 213 206 231 230 217 235 251 298 75 134 181 188 226 321 159 160 156 155 150 150 141 129 131 144 143 128 116 96 81 67 60 53 39 36 39 50 73 97 98 106 111 120
225 223 227 215 182 175 172 176 185 198 204 202 203 207 206 207 203 194 195 214 215 211 210 209 206 207 202 203 190 210 207 127 95 30 335 284 267 283 217 219 228 222 218 229 232 232 237 233 212 158 55 123 119 124 4 20 158 214 160 161 159 149 149 147 150 143 119 95 95 83 72 68 72 72 64 62 55 45 41 61 77 97 110 120 108
61 348 316 288 178 164 172 179 188 197 202 202 202 204 206 211 201 190 195 208 212 200 191 206 201 190 177 184 185 152 32 155 119 132 103 17 360 299 235 235 232 232 230 236 240 237 227 242 247 108 114 144 141 70 40 252 251 160 165 159 134 139 141 126 109 100 100 98 97 101 102 93 84 78 76 68 67 65 61 49 52 56 66 82 89
67 105 99 0 21 52 183 183 192 196 198 203 204 208 208 209 206 197 195 195 193 191 176 149 158 174 171 178 180 162 85 108 127 116 134 121 124 322 255 241 265 227 231 240 243 236 240 243 332 94 98 95 100 131 168 201 224 118 108 110 115 124 125 112 102 90 92 105 115 110 104 92 77 71 69 65 60 62 60 60 53 54 51 50 58
126 124 119 137 194 9 38 318 229 190 191 198 199 201 198 204 209 202 198 199 198 194 180 187 184 166 157 155 152 161 141 110 99 113 94 126 141 154 203 254 40 254 231 245 238 215 233 218 99 118 121 131 133 172 157 101 85 106 110 105 105 102 103 94 98 107 112 102 94 84 75 80 88 86 76 73 70 62 69 68 70 69 70 67 67
120 109 97 105 127 102 88 64 36 20 5 213 201 206 197 189 193 199 202 192 193 177 178 190 189 177 167 158 158 154 129 110 87 89 107 134 161 172 191 219 221 214 203 209 226 213 132 116 86 78 74 72 83 142 98 95 109 108 104 106 104 101 96 107 117 112 104 100 98 98 93 90 93 88 86 84 82 80 84 87 84 82 80 82 78
66 58 61 65 60 75 86 75 81 88 53 350 306 250 213 178 181 185 187 194 191 189 183 185 187 180 167 161 157 140 130 119 107 104 101 107 133 158 190 210 235 261 228 142 108 99 96 99 106 103 99 90 75 50 93 105 106 106 107 111 114 113 116 115 121 127 125 125 121 114 108 97 88 91 94 97 102 103 94 83 81 83 85 78 72
78 79 73 69 69 65 76 75 69 54 54 42 6 301 232 194 172 171 174 190 204 188 157 163 165 144 145 147 134 122 104 90 96 87 95 94 80 93 138 185 224 130 69 100 110 112 110 110 114 116 112 109 106 101 81 103 110 112 119 123 121 129 136 135 138 137 130 127 122 118 112 111 105 103 112 114 103 90 91 102 110 96 88 86 85
85 79 79 79 74 71 71 71 58 42 33 38 37 26 18 39 102 116 142 160 139 120 119 120 109 91 75 68 88 106 128 113 94 80 61 71 74 95 94 95 102 102 98 103 104 107 114 113 93 86 87 90 97 103 109 115 116 127 142 143 143 141 146 152 143 136 132 125 124 117 111 102 111 126 116 108 102 104 103 103 102 94 84 81 93
84 80 75 71 70 69 74 76 70 60 47 41 32 24 36 44 47 46 52 94 134 133 137 124 121 134 141 142 141 132 116 92 62 54 38 49 71 74 103 112 115 108 106 118 121 112 107 109 109 109 106 107 114 128 133 138 141 150 151 145 146 138 120 117 129 129 132 129 110 109 110 135 139 128 133 114 93 73 46 50 46 73 85 119 105
84 84 82 81 81 84 85 84 79 74 71 65 59 43 9 18 56 63 38 11 17 121 140 116 132 149 156 153 148 132 120 120 111 291 50 14 29 107 113 112 118 114 121 125 119 121 127 121 118 119 120 121 124 128 140 147 153 152 148 149 139 136 144 157 144 134 126 127 127 135 143 132 108 107 101 95 84 80 71 81 59 70 64 50 61
83 73 72 75 81 85 82 83 84 87 87 87 80 66 52 46 30 57 53 31 46 43 53 90 105 144 105 47 17 100 125 112 112 77 66 69 61 55 48 36 71 117 133 142 136 133 131 129 135 138 142 142 145 148 144 146 146 144 134 138 147 146 150 138 135 133 135 126 140 137 115 120 115 107 97 94 88 80 72 67 82 75 92 90 81
93 86 78 74 78 83 86 89 93 101 107 109 98 97 90 59 49 51 67 63 57 56 55 52 44 34 69 110 67 61 89 101 103 100 89 77 71 68 58 59 71 70 48 72 168 141 145 146 145 148 147 144 144 141 141 143 145 139 146 155 143 140 144 134 131 135 144 145 127 112 121 104 101 104 106 100 104 104 104 101 103 112 69 60 58
97 93 94 96 93 91 91 91 97 100 102 105 109 109 101 93 66 38 46 61 60 60 59 55 53 57 44 58 117 115 95 91 92 83 79 77 77 74 67 68 61 50 353 320 149 136 150 148 155 165 165 150 140 140 146 142 146 150 149 144 140 147 143 135 141 149 136 130 125 120 115 112 113 111 107 106 105 105 101 98 82 72 67 59 55
102 100 100 100 98 98 96 96 96 101 102 98 95 100 103 103 96 91 59 62 74 74 64 61 64 59 63 58 53 70 88 93 89 86 80 78 73 73 84 73 75 357 329 160 139 147 154 149 148 144 142 140 144 146 142 144 144 144 143 138 139 140 131 122 152 144 141 124 132 127 121 111 107 112 112 114 105 91 93 82 73 66 68 91 103
99 104 104 99 98 100 101 101 103 103 102 93 94 98 98 98 110 114 113 118 94 77 68 60 55 72 67 61 65 70 70 66 65 63 65 68 73 74 93 84 15 355 295 153 140 147 148 145 148 147 147 146 145 144 145 144 147 142 139 140 133 124 119 137 158 145 124 141 153 117 121 115 124 128 112 97 95 109 106 108 96 72 51 24 32
92 85 88 97 99 99 99 100 100 99 99 98 94 95 91 95 98 103 109 110 107 103 110 89 57 34 48 58 46 48 50 51 52 56 61 58 89 115 151 130 123 178 194 146 142 142 143 139 139 136 142 142 140 145 145 153 151 146 150 139 132 133 141 155 153 148 149 140 107 123 109 117 117 114 126 139 131 121 92 79 76 45 34 24 5
93 93 95 93 92 90 91 91 92 90 91 89 90 87 90 92 90 93 93 94 95 101 93 80 84 85 83 67 61 56 61 57 59 66 98 274 229 221 169 138 134 131 134 141 144 141 147 146 145 144 145 145 148 154 150 153 153 157 159 158 154 151 154 156 145 152 160 146 121 123 138 139 142 143 121 113 129 117 99 62 60 47 33 20 352
102 97 95 96 98 102 100 99 94 96 97 99 98 98 98 97 99 98 93 90 93 95 103 115 119 110 131 102 115 86 71 59 143 239 234 237 216 238 201 113 119 127 134 133 137 146 146 146 146 145 151 157 167 167 168 167 165 157 163 167 166 173 171 171 162 158 159 141 140 149 156 135 134 151 175 138 90 138 100 157 214 141 128 65 273
86 92 97 94 97 100 104 103 108 111 103 99 97 98 98 97 99 99 96 98 106 110 111 118 120 110 114 109 162 124 113 162 221 263 255 279 262 133 95 102 111 114 114 119 126 138 141 146 164 163 167 172 175 177 179 171 170 174 168 158 170 174 147 149 140 157 157 151 148 145 139 142 162 129 176 330 348 31 0 12 347 351 128 186 227
90 53 19 46 102 106 108 109 110 107 103 105 104 106 106 106 104 102 106 110 110 108 112 112 104 103 107 117 120 130 149 152 154 137 138 121 109 113 122 113 114 110 115 111 115 132 135 142 144 166 175 184 188 192 190 184 184 182 177 172 164 154 167 173 160 165 170 164 151 159 168 163 172 231 8 139 142 325 11 326 348 356 334 332 353
113 116 103 146 113 100 101 102 107 107 103 105 104 105 108 107 107 107 108 108 107 108 104 102 106 108 122 133 142 163 161 141 134 131 132 132 124 117 134 135 131 136 140 144 146 145 141 137 130 133 133 145 160 159 159 163 170 164 181 178 171 173 177 169 164 176 168 159 161 169 170 174 124 164 194 331 11 13 343 342 14 336 12 345 335
111 109 100 82 82 115 116 118 110 109 114 112 115 108 101 99 99 102 103 103 102 102 99 101 102 100 65 13 345 336 191 139 135 133 130 129 131 137 120 122 134 134 133 136 139 139 131 128 136 131 132 134 144 149 154 146 153 162 162 158 169 166 163 165 172 172 156 173 167 184 168 166 154 216 187 100 106 262 15 279 284 336 321 336 336
124 125 128 132 169 120 105 101 100 99 108 112 115 117 122 118 118 117 110 107 103 105 109 107 102 102 71 5 327 328 318 134 146 131 129 129 130 125 126 120 115 138 146 136 134 135 132 129 132 128 132 129 134 139 141 149 156 153 153 165 169 169 156 151 159 155 164 163 187 174 179 149 63 34 44 84 274 13 321 347 339 309 336 328 334
119 125 120 129 125 122 119 115 134 135 132 119 106 96 103 113 118 125 129 127 127 123 116 119 124 130 113 12 319 308 254 122 132 142 146 141 136 139 145 141 129 118 113 122 130 130 138 138 127 124 109 95 107 132 136 140 157 142 158 159 163 170 168 158 149 173 178 162 157 142 119 138 175 199 147 212 237 304 350 3 314 333 305 311 327
131 126 123 113 108 108 119 137 125 106 88 81 98 119 135 139 134 140 137 146 157 146 142 135 138 147 150 167 225 250 169 158 173 154 144 152 152 167 145 140 135 135 133 130 124 129 134 129 119 100 94 93 78 65 127 161 153 123 137 153 149 147 168 173 177 168 160 156 130 173 182 154 343 281 114 317 290 269 233 324 328 3 335 302 343
134 148 143 146 138 134 116 106 118 124 134 146 143 133 144 166 152 142 162 154 152 194 153 143 142 156 163 173 200 208 184 174 141 155 177 165 165 168 142 132 132 136 140 121 113 118 117 117 117 110 106 97 90 79 67 50 26 85 132 149 161 183 184 166 155 157 158 158 181 203 173 193 198 281 250 260 332 291 283 306 116 215 261 7 331
134 126 144 125 128 127 136 129 126 141 148 127 129 144 140 125 115 154 161 158 156 173 158 180 166 169 175 181 187 194 197 166 170 170 167 182 181 158 162 152 146 145 138 127 113 103 105 109 111 110 104 99 98 94 90 82 77 67 59 70 92 110 118 108 110 134 134 165 161 178 13 0 325 28 3 327 1 353 30 7 327 19 45 275 31
169 162 133 143 121 114 108 129 157 135 132 107 103 99 116 107 123 135 115 44 112 147 170 155 163 163 160 176 191 174 179 197 185 159 134 99 100 131 136 144 152 149 143 141 129 117 106 104 104 108 109 106 100 97 97 99 97 96 95 95 96 94 99 102 103 102 98 92 92 156 205 254 161 157 170 183 111 122 56 51 46 253 346 3 323
161 165 150 131 145 153 144 151 117 142 121 117 93 80 73 111 155 164 153 161 187 194 186 157 182 151 168 163 177 180 184 186 164 146 156 163 143 122 117 137 152 148 137 120 106 102 105 103 106 106 110 109 108 103 100 93 90 86 81 73 60 57 34 38 102 80 86 80 97 100 145 223 87 125 113 84 64 82 121 97 2 42 359 341 315
167 152 155 167 157 146 149 141 150 167 124 127 136 201 168 184 133 156 148 157 138 171 195 170 165 164 161 165 171 162 164 172 167 152 146 134 124 117 106 97 103 114 113 110 105 99 98 100 103 107 107 107 106 105 103 98 93 90 86 86 64 56 49 34 46 73 23 87 110 99 102 100 103 102 102 111 122 133 97 96 54 0 304 324 332
141 138 137 136 138 127 117 124 135 126 138 206 151 132 143 165 161 164 147 148 150 159 149 127 160 160 170 180 186 175 168 162 160 162 150 130 112 110 108 107 108 110 108 104 101 104 102 103 104 103 102 102 102 100 95 96 91 86 85 77 73 71 69 67 49 11 311 125 90 108 100 112 119 121 119 132 135 116 110 19 20 348 332 330 316
129 132 133 136 128 134 165 168 181 148 161 175 170 157 166 173 145 149 163 174 185 147 157 157 161 173 203 188 183 169 148 145 153 152 144 120 111 111 108 108 103 97 98 103 108 108 113 113 109 105 102 99 95 92 87 82 82 79 74 69 63 58 50 47 64 37 14 1 108 109 123 115 125 126 138 113 111 84 68 259 296 331 326 313 340